This demonstration page uses our WeatherBlox Daily Observations layout. Learn more.

36.17497, -115.13722

Hourly Observations for September 19, 2018

Temp ( °F °C ) Dew Point ( °F °C ) Humidity (%) Winds ( mph kmh ) Pressure ( in mb ) Visibility ( mi km ) Precip ( " mm )
12:53 am 00:53 Clear 76 24.4 14 -10 9 9 W 5 7 29.71 1006 10 16.09344 0 0
1:53 am 01:53 Clear 72 22.2 15 -9.4 11 11 Calm 29.71 1006 10 16.09344 0 0
2:53 am 02:53 Clear 70 21.1 19 -7.2 14 14 NW 5 7 29.71 1006 10 16.09344 0 0
3:53 am 03:53 Clear 70 21.1 18 -7.8 14 14 NW 3 6 29.71 1006 10 16.09344 0 0
4:53 am 04:53 Clear 67 19.4 19 -7.2 16 16 NW 5 7 29.71 1006 10 16.09344 0 0
5:53 am 05:53 Clear 66 18.9 19 -7.2 16 16 NW 7 11 29.71 1006 10 16.09344 0 0
6:53 am 06:53 Sunny 66 18.9 22 -5.6 19 19 NW 6 9 29.74 1007 10 16.09344 0 0
7:53 am 07:53 Sunny 70 21.1 20 -6.7 15 15 NNW 6 9 29.77 1008 10 16.09344 0 0
8:53 am 08:53 Sunny 79 26.1 18 -7.8 10 10 Calm 29.74 1007 10 16.09344 0 0
9:53 am 09:53 Sunny 83 28.3 19 -7.2 9 9 NE 3 6 29.77 1008 10 16.09344 0 0
10:53 am 10:53 Sunny 86 30 20 -6.7 9 9 E 3 6 29.74 1007 10 16.09344 0 0
11:53 am 11:53 Sunny 92 33.3 14 -10 5 5 WSW 6 9 29.71 1006 10 16.09344 0 0
12:53 pm 12:53 Sunny 95 35 10 -12.2 4 4 S 14 22 29.68 1005 10 16.09344 0 0
1:53 pm 13:53 Sunny 97 36.1 7 -13.9 3 3 SW 10 17 29.65 1004 10 16.09344 0 0
2:53 pm 14:53 Sunny 98 36.7 8 -13.3 3 3 WSW 12 19 29.62 1003 10 16.09344 0 0
3:53 pm 15:53 Sunny 97 36.1 4 -15.6 3 3 WSW 17 28 29.62 1003 10 16.09344 0 0
4:53 pm 16:53 Sunny 97 36.1 2 -16.7 3 3 W 13 20 29.59 1002 10 16.09344 0 0
5:53 pm 17:53 Sunny 95 35 5 -15 3 3 WSW 14 22 29.62 1003 10 16.09344 0 0
6:53 pm 18:53 Clear 91 32.8 9 -12.8 4 4 SW 10 17 29.62 1003 10 16.09344 0 0
7:53 pm 19:53 Clear 89 31.7 10 -12.2 5 5 W 7 11 29.65 1004 10 16.09344 0 0
8:53 pm 20:53 Clear 87 30.6 11 -11.7 6 6 NW 8 13 29.68 1005 10 16.09344 0 0
9:53 pm 21:53 Clear 83 28.3 13 -10.6 7 7 N 8 13 29.68 1005 10 16.09344 0 0
10:53 pm 22:53 Clear 81 27.2 14 -10 8 8 NNW 3 6 29.71 1006 10 16.09344 0 0
11:53 pm 23:53 Clear 75 23.9 17 -8.3 11 11 Calm 29.71 1006 10 16.09344 0 0

Powered by AerisWeather